Location: ?p Dangia
(12.0167°N, 108.4333°E)
Time: 12:38:15
(UTC+00:00)

Meteor 2-4 Rocket - Pass Details

Date: 07 June 2020
Orbit: 800 x 907 km, 81.2° (Epoch: 14 July)

Event Time Altitude Azimuth Distance (km) Brightness Sun altitude
Rises 11:35:09 0° 173° (S) 3,333 6.5 -6.5°
Reaches altitude 10° 11:37:38 10° 167° (SSE) 2,390 5.7 -7.1°
Maximum altitude 11:42:47 48° 94° (E) 1,038 3.8 -8.2°
Drops below altitude 10° 11:47:53 10° 21° (NNE) 2,367 6.1 -9.4°
Sets 11:50:19 0° 15° (NNE) 3,298 6.9 -9.9°
